Location: *
(51.1248°S, 108.4023°W)
Time: 21:38:39
(UTC+00:00)

Cosmos 2278 Rocket - Pass Details

Date: 29 October 2021
Orbit: 841 x 845 km, 71.0° (Epoch: 30 November)

Event Time Altitude Azimuth Distance (km) Brightness Sun altitude
Exits shadow 07:00:19 21° 283° (WNW) 1,838 3.8 -25.3°
Maximum altitude 07:03:36 38° 228° (SW) 1,284 3.4 -25.3°
Drops below altitude 10° 07:08:56 10° 160° (SSE) 2,499 5.6 -25.3°
Sets 07:11:36 0° 151° (SSE) 3,440 6.4 -25.2°
